Airfield :
LOGIN :

Register | Disclaimer

   EN    FR    IT 

 










Legend :    VFR   Marginal VFR   IFR   Intensive IFR   Very Intensive IFR
Visi :
Ceiling :
>= 8 km
>= 3000ft
5 to 8 km
1000 to 3000 ft
1500m to 5 km
500 to 1000 ft
800 to 1500m
200 to 500 ft
< 800m
< 200 ft
Symbols :   Thunderstorms  Fog  Heavy snow  Heavy precipitations  Wind > 20 kt
SIGMETs :     Misc.  Thunderstorms  Icing  Turbulence  Mountain Waves  Volcanic Ashes







- Airport Elevation : 640 ft
- IATA code : AOC


EDAC - Altenburg-Nobitz

CURRENT METAR :
  • 211150Z 28018G28KT CAVOK 27/09 Q1011

EXPIRED METARs :
  • 211120Z 26017KT 220V290 CAVOK 28/10 Q1010
  • 211050Z 26014KT CAVOK 27/12 Q1010
  • 211020Z 28014KT CAVOK 27/13 Q1010
  • 210950Z 24019KT 220V280 CAVOK 29/12 Q1010
  • 210920Z 25017KT CAVOK 27/12 Q1010

TAF TAF EDAC
Valid from the 21 at 12:00 until the 21 at 21:00 UTC


211100Z 2112/2121 27015G25KT 9999 SCT040
BECMG 2112/2114 33025G45KT SHRA
BECMG 2114/2116 33020G35KT
BECMG 2116/2118 30015G25KT
BECMG 2118/2120 29012KT
No reported NOTAMs for that airfield.



MET'MAP, your aeronautical weather chart ! - Copyright ORBIFLY December 2007 - Disclaimer

ORBIFLY MET'MAP TEAM :

Programming & Development : Alexandra Zaïnal
Concept & Development : Baudouin d'Aumeries
Co-Development & Prog : Marc-Olivier Méhu
Technical & hardware support : Manuel Goepfert

Contact : metmap@orbifly.com




SOURCES & CREDITS :

   NOAA